Charleston, SC

6:53 PM EST on January 19, 2017 (GMT -0500)
Charleston Executive

Weather History for KJZI - February, 2013

Change the Weather History Date:

Tuesday, February 26, 2013

  Actual Average (KCHS) Record (KCHS)
Temperature  
Mean Temperature 60 °F -  
Max Temperature 71 °F 62 °F 83 °F (1996)
Min Temperature 50 °F 38 °F 14 °F (1967)
Degree Days  
Heating Degree Days 4    
Growing Degree Days 10 (Base 50)    
Moisture  
Dew Point 58 °F    
Average Humidity 85    
Maximum Humidity 100    
Minimum Humidity 56    
Precipitation  
Precipitation 0.49 in - - ()
Sea Level Pressure  
Sea Level Pressure 29.73 in    
Wind  
Wind Speed 16 mph (SSE)    
Max Wind Speed 25 mph    
Max Gust Speed 39 mph    
Visibility 5 miles    
Events Rain    
Averages and records for this station are not official NWS values.
T = Trace of Precipitation, MM = Missing Value Source: NWS Daily Summary

Daily Weather History Graph

Daily Weather History Graph

Search for Another Location

Airport or City:

Trip Planner

Search our weather history database for the weather conditions in past years. The results will help you decide how hot, cold, wet, or windy it might be!

Date:

Astronomy

Feb. 26, 2013 Rise Set
Actual Time 6:50 AM EST 6:15 PM EST
Civil Twilight 6:26 AM EST 6:39 PM EST
Nautical Twilight 5:57 AM EST 7:08 PM EST
Astronomical Twilight 5:29 AM EST 7:37 PM EST
Moon 7:22 PM EST (2/26) 6:58 AM EST (2/26)
Length of Visible Light 12h 13m
Length of Day
11h 24m
Full, 99% of the Moon is Illuminated
Feb 26
Full
Mar 4
Last Quarter
Mar 11
New
Mar 19
First Quarter
Mar 27
Full

Hourly Weather History & Observations

Time (EST) Temp. Dew Point Humidity Pressure Visibility Wind Dir Wind Speed Gust Speed Precip Events Conditions
12:15 AM 50.0 °F 46.4 °F 87% 29.96 in 5.0 mi ENE 15.0 mph 23.0 mph 0.00 in   Overcast
12:35 AM 51.8 °F 48.2 °F 88% 29.94 in 5.0 mi ENE 20.7 mph 27.6 mph 0.00 in   Overcast
12:55 AM 53.6 °F 50.0 °F 88% 29.95 in 6.0 mi ENE 18.4 mph 26.5 mph 0.00 in   Mostly Cloudy
1:15 AM 53.6 °F 51.8 °F 94% 29.94 in 4.0 mi ENE 16.1 mph 20.7 mph 0.00 in   Overcast
1:35 AM 53.6 °F 51.8 °F 94% 29.94 in 4.0 mi NE 15.0 mph 20.7 mph 0.01 in Rain Light Rain
1:55 AM 53.6 °F 51.8 °F 94% 29.92 in 3.0 mi ENE 19.6 mph 23.0 mph 0.02 in Rain Light Rain
2:15 AM 55.4 °F 53.6 °F 94% 29.91 in 3.0 mi ENE 16.1 mph 21.9 mph 0.00 in   Overcast
2:35 AM 55.4 °F 53.6 °F 94% 29.89 in 4.0 mi ENE 17.3 mph 21.9 mph 0.00 in   Light Drizzle
3:15 AM 55.4 °F 53.6 °F 94% 29.87 in 2.5 mi ENE 15.0 mph 20.7 mph 0.01 in Rain Light Rain
3:35 AM 55.4 °F 55.4 °F 100% 29.86 in 1.5 mi NE 12.7 mph 25.3 mph 0.09 in Rain Light Rain
3:55 AM 57.2 °F 55.4 °F 94% 29.85 in 4.0 mi ENE 11.5 mph - 0.09 in Rain Light Rain
4:15 AM 57.2 °F 55.4 °F 94% 29.84 in 2.5 mi NE 9.2 mph - 0.01 in Rain Light Rain
4:35 AM 57.2 °F 57.2 °F 100% 29.82 in 3.0 mi ENE 9.2 mph - 0.03 in Rain Light Rain
4:55 AM 57.2 °F 57.2 °F 100% 29.80 in 2.5 mi ENE 15.0 mph - 0.06 in Rain Light Rain
5:15 AM 57.2 °F 57.2 °F 100% 29.80 in 2.5 mi East 10.4 mph - 0.01 in   Overcast
5:35 AM 57.2 °F 57.2 °F 100% 29.79 in 4.0 mi ENE 13.8 mph - 0.01 in   Overcast
5:55 AM 60.8 °F 59.0 °F 94% 29.79 in 3.0 mi ENE 13.8 mph - 0.01 in   Overcast
6:15 AM 60.8 °F 59.0 °F 94% 29.79 in 2.5 mi East 11.5 mph - 0.00 in   Overcast
6:35 AM 60.8 °F 60.8 °F 100% 29.76 in 2.0 mi East 10.4 mph - 0.00 in   Overcast
6:55 AM 62.6 °F 62.6 °F 100% 29.76 in 3.0 mi East 12.7 mph 17.3 mph 0.00 in   Overcast
7:15 AM 62.6 °F 62.6 °F 100% 29.76 in 3.0 mi SE 9.2 mph - 0.00 in   Overcast
7:35 AM 62.6 °F 60.8 °F 94% 29.75 in 5.0 mi SE 12.7 mph 16.1 mph 0.00 in   Overcast
7:55 AM 62.6 °F 60.8 °F 94% 29.73 in 4.0 mi ESE 19.6 mph 24.2 mph 0.01 in   Mostly Cloudy
8:15 AM 62.6 °F 60.8 °F 94% 29.74 in 5.0 mi ESE 13.8 mph 21.9 mph 0.01 in   Overcast
8:35 AM 64.4 °F 64.4 °F 100% 29.75 in 1.2 mi SE 12.7 mph 28.8 mph 0.05 in   Overcast
8:55 AM 66.2 °F 64.4 °F 94% 29.75 in 2.0 mi SE 12.7 mph 20.7 mph 0.09 in Rain Light Rain
9:15 AM 66.2 °F 64.4 °F 94% 29.73 in 2.0 mi SE 16.1 mph 33.4 mph 0.02 in   Overcast
9:35 AM 66.2 °F 64.4 °F 94% 29.73 in 1.8 mi SE 12.7 mph 19.6 mph 0.03 in   Overcast
9:55 AM 66.2 °F 64.4 °F 94% 29.72 in 1.2 mi SE 16.1 mph 26.5 mph 0.15 in Rain Light Rain
10:15 AM 66.2 °F 66.2 °F 100% 29.71 in 2.5 mi SE 16.1 mph 26.5 mph 0.00 in   Overcast
10:35 AM 66.2 °F 64.4 °F 94% 29.73 in 1.5 mi SSE 15.0 mph 24.2 mph 0.02 in   Overcast
10:55 AM 64.4 °F 64.4 °F 100% 29.73 in 1.2 mi South 16.1 mph 21.9 mph 0.06 in   Overcast
11:15 AM 68.0 °F 64.4 °F 88% 29.73 in 2.5 mi SSW 24.2 mph 31.1 mph 0.00 in Rain Light Rain
11:35 AM 68.0 °F 64.4 °F 88% 29.71 in 3.0 mi South 21.9 mph 27.6 mph 0.00 in   Mostly Cloudy
11:55 AM 68.0 °F 64.4 °F 88% 29.69 in 3.0 mi South 20.7 mph 29.9 mph 0.00 in   Mostly Cloudy
12:15 PM 69.8 °F 64.4 °F 83% 29.67 in 5.0 mi South 17.3 mph 29.9 mph 0.00 in   Haze
12:35 PM 71.6 °F 64.4 °F 78% 29.66 in 5.0 mi SSW 16.1 mph 27.6 mph 0.00 in   Haze
12:55 PM 69.8 °F 64.4 °F 83% 29.64 in 5.0 mi SSW 20.7 mph 29.9 mph 0.00 in   Haze
1:15 PM 71.6 °F 64.4 °F 78% 29.63 in 4.0 mi SSW 18.4 mph 31.1 mph 0.00 in   Haze
1:35 PM 71.6 °F 64.4 °F 78% 29.62 in 5.0 mi SSW 25.3 mph 35.7 mph 0.00 in   Haze
1:55 PM 69.8 °F 64.4 °F 83% 29.61 in 4.0 mi South 25.3 mph 39.1 mph 0.00 in   Haze
2:15 PM 69.8 °F 64.4 °F 83% 29.60 in 4.0 mi South 23.0 mph 35.7 mph 0.00 in   Haze
2:35 PM 71.6 °F 64.4 °F 78% 29.61 in 5.0 mi SSW 23.0 mph 34.5 mph 0.00 in   Haze
2:55 PM 69.8 °F 64.4 °F 83% 29.61 in 5.0 mi SSW 24.2 mph 33.4 mph 0.00 in   Haze
3:15 PM 69.8 °F 62.6 °F 78% 29.62 in 5.0 mi SSW 20.7 mph 29.9 mph 0.00 in   Haze
3:35 PM 69.8 °F 62.6 °F 78% 29.62 in 5.0 mi SSW 23.0 mph 33.4 mph 0.00 in   Haze
3:55 PM 68.0 °F 62.6 °F 83% 29.62 in 6.0 mi SSW 18.4 mph 32.2 mph 0.00 in   Haze
4:15 PM 66.2 °F 62.6 °F 88% 29.62 in 5.0 mi SSW 18.4 mph 32.2 mph 0.00 in   Partly Cloudy
4:35 PM 66.2 °F 62.6 °F 88% 29.61 in 5.0 mi SSW 15.0 mph 27.6 mph 0.00 in   Partly Cloudy
5:15 PM 66.2 °F 62.6 °F 88% 29.61 in 5.0 mi SW 16.1 mph 27.6 mph 0.00 in   Haze
5:35 PM 66.2 °F 62.6 °F 88% 29.61 in 5.0 mi SW 13.8 mph 21.9 mph 0.00 in   Clear
6:15 PM 64.4 °F 60.8 °F 88% 29.61 in 5.0 mi SW 15.0 mph - 0.00 in   Clear
6:35 PM 64.4 °F 59.0 °F 83% 29.62 in 5.0 mi SSW 15.0 mph 18.4 mph 0.00 in   Haze
7:15 PM 64.4 °F 57.2 °F 77% 29.64 in 7.0 mi SSW 9.2 mph - 0.00 in   Clear
7:35 PM 64.4 °F 57.2 °F 77% 29.65 in 8.0 mi SSW 11.5 mph - 0.00 in   Clear
8:15 PM 64.4 °F 55.4 °F 73% 29.67 in 8.0 mi SW 11.5 mph 19.6 mph 0.00 in   Clear
8:35 PM 62.6 °F 53.6 °F 72% 29.68 in 9.0 mi SW 10.4 mph - 0.00 in   Clear
8:55 PM 62.6 °F 53.6 °F 72% 29.68 in 8.0 mi SSW 8.1 mph - 0.00 in   Clear
9:15 PM 62.6 °F 53.6 °F 72% 29.69 in 8.0 mi SSW 9.2 mph - 0.00 in   Clear
9:35 PM 62.6 °F 51.8 °F 68% 29.69 in 9.0 mi SW 12.7 mph - 0.00 in   Clear
9:55 PM 64.4 °F 50.0 °F 59% 29.70 in 10.0 mi SW 12.7 mph 17.3 mph 0.00 in   Clear
10:15 PM 64.4 °F 50.0 °F 59% 29.70 in 9.0 mi SW 12.7 mph 19.6 mph 0.00 in   Clear
10:35 PM 64.4 °F 50.0 °F 59% 29.71 in 10.0 mi SW 11.5 mph - 0.00 in   Clear
10:55 PM 64.4 °F 48.2 °F 56% 29.72 in 10.0 mi SW 9.2 mph 18.4 mph 0.00 in   Clear
11:15 PM 64.4 °F 48.2 °F 56% 29.71 in 10.0 mi SW 11.5 mph 18.4 mph 0.00 in   Clear
11:35 PM 64.4 °F 48.2 °F 56% 29.72 in 10.0 mi SSW 9.2 mph - 0.00 in   Clear
11:55 PM 62.6 °F 50.0 °F 63% 29.72 in 10.0 mi SW 12.7 mph 19.6 mph 0.00 in   Clear